Other Public Products
Issued by NWS Grand Forks, ND

Home | Current Version | Previous Version | Graphics & Text | Print | Product List | Glossary On
Versions: 1 2 3 4 5 6 7 8 9 10 11 12 13 14 15 16 17 18 19 20 21 22 23 24 25 26 27 28 29 30 31 32 33 34 35 36 37 38 39 40 41 42 43 44 45 46 47 48 49 50
000
FPUS83 KFGF 291710
OPUFGF
PRAIRIE TO PINES WEATHER ROUNDUP
NATIONAL WEATHER SERVICE EASTERN NORTH DAKOTA/GRAND FORKS ND
1200 PM CDT WED JUL 29 2015

 **SATELLITE DATA USED TO AUGMENT SKY COVER AT AUTOMATED STATIONS**
 *****  WEATHER ACROSS EASTERN NORTH DAKOTA  *****

CITY           SKY/WX    TMP DP  RH WIND       PRES   REMARKS
GRAND FORKS    MOSUNNY   77  54  44 NW26G41   29.76R
GRAND FORKS AF SUNNY     76  55  48 NW22G39   29.79R
GRAND CITY NWS   N/A     75 N/A N/A NW16        N/A
BUXTON         NOT AVBL
DEVILS LAKE    SUNNY     73  54  49 NW25G38   29.84R
FARGO          SUNNY     78  56  46 W29G40    29.86R
WAHPETON ARPT  SUNNY     77  50  38 W25G35    29.92R
$$

 *****  WEATHER ACROSS CENTRAL AND WESTERN NORTH DAKOTA  *****

CITY           SKY/WX    TMP DP  RH WIND       PRES   REMARKS
JAMESTOWN      SUNNY     76  52  43 W24G35    29.94R
BISMARCK       SUNNY     78  50  37 W18G31    30.03R
MINOT          MOSUNNY   75  53  46 W22G30    29.95R
MINOT AFB      MOSUNNY   76  57  52 W21G31    29.94R
GARRISON         N/A     71  54  54 W21G32    30.00S
WILLISTON      MOSUNNY   76  51  41 W24G33    30.05S
DICKINSON      PTSUNNY   72  46  39 W25G33    30.11R
HETTINGER      MOSUNNY   74  43  32 W22       30.16S
$$

 *****  OTHER OBSERVATIONS NORTHEAST NORTH DAKOTA  *****

CITY           SKY/WX    TMP DP  RH WIND       PRES   REMARKS
WALHALLA       FAIR      73  54  49 MISG      29.72R
LANGDON        FAIR      73  55  53 W28G38    29.78R
CAVALIER       FAIR      73  55  53 NW26G35   29.71R
GRAFTON        FAIR      75  55  50 NW28G39   29.74R
CANDO          NOT AVBL
FORT TOTTEN      N/A     74  57  55 NW10      29.95
ROLLA          FAIR      68  54  60 W22G40    29.85R
RUGBY          NOT AVBL
 ***** THE ABOVE OBSERVATIONS ARE NON NWS ARE NOT QUALITY
        CONTROLLED AND MAY MIS-REPORT RAIN FOR SNOW...
$$

 *****  OTHER OBSERVATIONS SOUTHEAST NORTH DAKOTA *****

CITY           SKY/WX    TMP DP  RH WIND       PRES   REMARKS
COOPERSTOWN    NOT AVBL
VALLEY CITY    FAIR      75  54  46 W33G39    29.91R
OAKES            N/A     77  55  47 W21G32    29.98R
GWINNER        FAIR      75  55  50 W21G32    29.97R
SHEYENNE NWR     N/A     77  54  44 W21       29.95S
BUFFALO        NOT AVBL
WYNDMERE         N/A     77  55  47 W20         N/A
 ***** THE ABOVE OBSERVATIONS ARE NON NWS ARE NOT QUALITY
       CONTROLLED AND MAY MIS-REPORT RAIN FOR SNOW...
$$

  *****  WEATHER ACROSS NORTHERN MINNESOTA  *****

CITY           SKY/WX    TMP DP  RH WIND       PRES   REMARKS
FLAG ISLAND    CLOUDY    64  57  77 W23G32    29.54R
WARROAD        CLOUDY    63  59  88 W20G31    29.63R
ROSEAU         CLOUDY    66  57  72 W15G24    29.65R
HALLOCK        MOSUNNY   73  54  49 W35G43    29.68R
THF RVR FALLS  CLOUDY    70  55  60 W15G26    29.74R
HALSTAD        NOT AVBL
FOSSTON        PTSUNNY   70  55  60 W22G35    29.78R
BAUDETTE       CLOUDY    64  57  78 W16G26    29.62R
WASKISH        CLOUDY    64  59  82 SW26G40   29.69R
CROOKSTON      MOSUNNY   75  54  46 W32G39    29.77R
$$
  *****  WEATHER ACROSS CENTRAL AND WEST MINNESOTA  *****

CITY           SKY/WX    TMP DP  RH WIND       PRES   REMARKS
BEMIDJI        CLOUDY    65  55  69 W21G31    29.76R
PARK RAPIDS    SUNNY     76  53  44 W28G43    29.82R
WADENA         SUNNY     73  54  49 W20G35    29.87R
DETROIT LAKES  SUNNY     73  54  49 W23G32    29.87R
MOORHEAD       SUNNY     75  55  50 W23G31    29.87R
FERGUS FALLS   SUNNY     75  55  50 W24G31    29.90S
ELBOW LAKE     FAIR      74  56  54 W28G38    29.93S
MORRIS MN      SUNNY     75  55  50 W22G30    29.95R
STAPLES        SUNNY     73  52  46 W26G37    29.86S
WHEATON        SUNNY     73  55  53 W14G26    29.97S
$$
  *****  WEATHER ELSEWHERE ACROSS MINNESOTA  *****

CITY           SKY/WX    TMP DP  RH WIND       PRES   REMARKS
DULUTH         CLOUDY    67  53  61 W21G26    29.76R
INTRNTL FALLS  LGT RAIN  62  59  90 W15G24    29.61R
ELY            CLOUDY    64  54  68 W15G26    29.67R
CLOQUET        CLOUDY    66  52  59 W17G28    29.78S
BRAINERD       MOSUNNY   73  54  51 W18G33    29.84R
HIBBING        CLOUDY    66  55  67 W14G28    29.73R
ALEXANDRIA     SUNNY     75  54  47 W26G39    29.94R
SAINT CLOUD    SUNNY     77  53  43 W24G37    29.91R
MINNEAPOLIS    SUNNY     78  52  40 W25G39    29.94S
$$

  *****  WEATHER ACROSS SOUTH DAKOTA  *****

CITY           SKY/WX    TMP DP  RH WIND       PRES   REMARKS
SIOUX FALLS    SUNNY     77  56  48 W10G21    30.13S
BROOKINGS      SUNNY     73  54  49 W18G28    30.10F
WATERTOWN      SUNNY     76  52  43 W22G30    30.05S
HURON          SUNNY     79  51  37 W20G28    30.09F
SISSETON         N/A     77  54  44 NW29G36   29.96S
ABERDEEN       SUNNY     79  51  37 W16G24    30.04R
MITCHELL       SUNNY     81  50  33 W17G26    30.14R
PIERRE         SUNNY     85  40  20 W23       30.13S
MOBRIDGE       SUNNY     80  50  34 NW17      30.08R
RAPID CITY     SUNNY     77  41  27 NW10      30.25F
$$

  *****  SOME WEATHER IN NEARBY STATES *****

CITY           SKY/WX    TMP DP  RH WIND       PRES   REMARKS
GLASGOW MT     SUNNY     75  48  38 W15G21    30.12F
GREAT FALLS MT SUNNY     71  38  29 W8        30.22F
CHEYENNE WY    SUNNY     70  45  40 W5        30.37F
SCOTTSBLUFF NE SUNNY     71  46  40 E13       30.31F
OMAHA NE       MOSUNNY   84  54  35 NW10      30.17F
DES MOINES IA  PTSUNNY   83  49  30 NW18G24   30.11S
DAVENPORT IA   SUNNY     81  58  45 NW7       30.07R
CHICAGO IL     MOSUNNY   85  58  39 NW12      29.98S
EAU CLAIRE WI  SUNNY     79  52  38 W16G37    29.90F
LA CROSSE WI   SUNNY     82  51  34 W20G29    29.96F
$$

  *****  SOME NATIONAL WEATHER *****

CITY           SKY/WX    TMP DP  RH WIND       PRES   REMARKS
LA GUARDIA NY  PTSUNNY   92  63  38 NE7       29.96F HX  93
RALEIGH NC     PTSUNNY   87  71  58 CALM      30.03F HX  93
ATLANTA GA     PTSUNNY   89  73  59 CALM      30.02F HX  97
NEW ORLEANS LA PTSUNNY   92  75  57 N9G17     30.03F HX 103
OKLAHOMA CITY  SUNNY     90  70  51 CALM      30.07R HX  95
ALBUQUERQUE NM CLOUDY    78  57  48 N9G17     30.31F
SALT LAKE CITY SUNNY     73  32  22 VRB3      30.30S
LOS ANGELES CA PTSUNNY   70  63  78 W6        29.95S
BOISE ID       SUNNY     75  34  22 S6        30.26S
SEATTLE WA     MOSUNNY   75  50  41 VRB7G18   30.20F
$$

*** WEATHER ACROSS MANITOBA...SASKATCHEWAN AND ONTARIO ***
                ***ONTARIO***

CITY           SKY/WX    TMP DP  RH WIND       PRES   REMARKS
GERALDTON      PTSUNNY   73  57  56 SW17      29.51F
THUNDER BAY    PTSUNNY   72  57  60 W20G30    29.58F
SIOUX LOOKOUT  LGT RAIN  63  61  94 W14G23    29.43R
TORONTO        PTSUNNY   90  61  37 S12G17    29.94F
BIG TROUT LK   LGT RAIN  64  59  82 SW9       29.27S
PICKLE LAKE    LGT RAIN  63  59  88 S15G25    29.33F FOG
DRYDEN         CLOUDY    64  61  88 SW18G35   29.44  FOG
KENORA         LGT RAIN  63  61  94 W15G26    29.50R FOG
$$
                *** MANITOBA***

CITY           SKY/WX    TMP DP  RH WIND       PRES   REMARKS
BRANDON        PTSUNNY   72  54  53 NW24G43   29.77R
DAUPHIN        SUNNY     68  55  64 NW20G32   29.69R
ISLAND LAKE    PTSUNNY   70  63  78 W9        29.26S
PILOT MOUND    NOT AVBL
THE PAS        PTSUNNY   68  55  64 NW20G28   29.65R
THOMPSON       LGT RAIN  57  55  94 N17G30    29.50R
WINNIPEG       PTSUNNY   70  59  68 NW26G39   29.60R
LYNN LAKE        N/A    N/A N/A N/A MISG        N/A
CHURCHILL      LGT RAIN  50  48  93 N17G24    29.57S FOG
GILLAM         DRIZZLE   55  54  94 NE24G31   29.36R
$$
                ***SASKATCHEWAN***

CITY           SKY/WX    TMP DP  RH WIND       PRES   REMARKS
ESTEVAN        MOSUNNY   73  57  56 W20G30    29.97S
KINDERSLEY     MOSUNNY   72  48  43 NW12      30.04S
LLOYDMINSTER   PTSUNNY   68  50  52 W13       30.00R
PRINCE ALBERT  NOT AVBL
REGINA         MOSUNNY   72  57  60 W22       29.96S



USA.gov is the U.S. government's official web portal to all federal, state and local government web resources and services.